STARLINK-33798, 63449

Orbit data source: Space-Track

STARLINK-33798, 63449 is a payload satellite owned by SpaceX/Seattle (US) in LEO that was launched on Fri, 04 Apr 2025 UTC via an FALCON 9 launch vehicle from the Air Force Western Test Range (AFWTR). Payload-class satellites include a variety of spacecraft equipped with specific instruments for various scientific and technological missions. These include communications satellites like Starlink; space stations such as the ISS; scientific satellites like the Hubble; Earth observation satellites from companies like Planet Labs, Umbra, and HawkEye 360; GPS; miniature CubeSats for education and research; and military/defense satellites.

Loading next visibility...
Identifier
63449, 2025-069S
Orbit
LEO
Country
Flag of USUS
Related business
Manufacturer
SpaceX/Seattle
Mission
Operational Commercial Communications
Bus & Motor
STARLINK V2MO, Unknown motor
Mass
575 kg wet, ~530 kg dry
Launch date (UTC)
2025-04-04 (1 year ago)
Launch vehicle
FALCON 9
Launch site
Air Force Western Test Range (AFWTR)
Object type
Payload
Rocket body
Debris
Shape & HBR
Box + 2 Pan, 17.7 m
Radar Cross Section
36.964 m², Large (>1 m²)

Expand to show TLE details & history
Last TLE update: 13 hours ago

TLE from 13 hours ago
0 STARLINK-33798
1 63449U 25069S   26145.28255607  .00034070  00000-0  78822-3 0  9995
2 63449  53.1581 144.4094 0000974  77.7125 282.3990 15.42185957 64893
Epoch: 2026-05-25T06:46Z
TLE epoch observation values (Epoch: 2026-05-25T06:46:52.844Z)
Latitude
-0.00002°
Longitude
159.81662°
Altitude
440.421 km
Speed
7.649 km/s
True Right ascension
09h 37m 38s
True Declination
0° 00' 00"
Sunlit
Object was in daylight at epoch
Visualization orbit readout
Latitude
Unknown
Longitude
Unknown
Altitude
Unknown
Speed
Unknown
Apparent Right ascension
Unknown
Apparent Declination
Unknown
Sunlit
N/A
Visualization observer readout
Local Sidereal Time
04:52:46
Azimuth
Unknown
Elevation
Unknown
Doppler factor
Unknown
Orbital elements
Apogee altitude
440.581 km
Perigee altitude
439.253 km
Semi-major axis
6,818.054 km
Eccentricity
0.0001
Inclination
53.1581°
RAAN
144.4094°
Arg. of periapsis
77.7125°
True anomaly
282.3881°
Mean anomaly
282.399°
Eccentric anomaly
282.39355°
Mean motion
3.85525 °/min
Orbital period
93.38 mins
BSTAR
0.00078822
Loading maneuver chart data...
Computing Atmospheric mass density...
Loading historical data...
Loading historical data...
Loading historical data...
Loading historical data...
Loading historical data...
Loading historical data...
Loading historical data...

Documentation

Showing up to 5 results
|